Flag for U.S.A. Weather past 2 weeks in Metairie, Louisiana, U.S.A.

Now
95 °F

Partly sunny.


Feels Like: 103 °F
Forecast: 81 / 95 °F
Wind: No wind

Location: New Orleans International Airport

Current Time: Jul 30, 2015 at 4:14:22 PM

Latest Report: Jul 30, 2015 at 3:53 PM


Visibility: 10 mi

Pressure: 29.93 "Hg

Humidity: 46%

Dew point: 71 °F

Location of MetairieLocation

Historic Weather in Metairie — Graph

°F

Metairie temperature yesterday

Maximum temperature yesterday: 99 °F (at 3:53 PM)
Minimum temperature yesterday: 77 °F (at 7:53 PM)
Average temperature yesterday: 86 °F

Past Weeks' High & Low Weather Summary

 TemperatureHumidityPressure
High99 °F (Jul 29, 3:53 PM)90% (Jul 22, 5:53 AM)30.08 "Hg (Jul 22, 5:53 AM)
Low76 °F (Jul 26, 4:53 AM)37% (Jul 29, 3:53 PM)29.87 "Hg (Jul 25, 4:53 PM)
Average86 °F69%29.98 "Hg
* Reported Jul 15 2:53 PM — Jul 30 2:53 PM, Metairie, Weather by CustomWeather, © 2015

Note: Actual official high and low records may vary slightly from our data, if they occured in-between our weather recording intervals... More about our weather records

Advertising

Metairie weather history for previous 24 hours

 ConditionsComfort  
Time TempWeatherWind HumidityBarometerVisibility
2:53 PM
Thu, Jul 30
96 °FPartly sunny.7 mph46%29.97 "Hg10 mi
1:53 PM94 °FPartly sunny.7 mph49%30.00 "Hg10 mi
12:53 PM92 °FBroken clouds.9 mph56%30.01 "Hg10 mi
11:53 AM91 °FPartly sunny.9 mph57%30.02 "Hg10 mi
10:53 AM88 °FPartly sunny.10 mph65%30.02 "Hg10 mi
9:53 AM85 °FBroken clouds.10 mph70%30.03 "Hg10 mi
8:53 AM84 °FPartly sunny.12 mph74%30.03 "Hg10 mi
7:53 AM82 °FPartly sunny.5 mph82%30.01 "Hg10 mi
6:53 AM81 °FPassing clouds.3 mph85%30.01 "Hg10 mi
5:53 AM78 °FClear.5 mph87%29.99 "Hg10 mi
4:53 AM78 °FPartly cloudy.5 mph87%29.99 "Hg10 mi
3:53 AM79 °FPartly cloudy.6 mph88%30.00 "Hg10 mi
2:53 AM78 °FPassing clouds.6 mph87%30.00 "Hg10 mi
1:53 AM78 °FPassing clouds.5 mph87%30.00 "Hg10 mi
12:53 AM79 °FPassing clouds.3 mph88%30.00 "Hg10 mi
11:53 PM
Wed, Jul 29
79 °FMostly cloudy.7 mph84%30.00 "Hg10 mi
10:53 PM79 °FLight rain. Overcast.3 mph84%30.03 "Hg10 mi
9:53 PM80 °FThunderstorms. Mostly cloudy.No wind76%30.06 "Hg10 mi
8:53 PM78 °FCloudy.13 mph84%30.02 "Hg10 mi
7:53 PM77 °FThunderstorms. More clouds than sun.12 mph85%30.00 "Hg10 mi
6:53 PM87 °FThunderstorms. Mostly cloudy.8 mph57%29.98 "Hg10 mi
5:53 PM95 °FThunderstorms. Partly sunny.9 mph49%29.94 "Hg10 mi
4:53 PM94 °FScattered clouds.16 mph52%29.96 "Hg10 mi
Weather by CustomWeather, © 2015

See weather overviewHow to use our weather pages